This is the latest recevied weather packets stored in our database for station/object BM2MWA-13. If no packets are shown the sender has not sent any weather packets the latest 10 day(s).
| Time | Temp. | Humidity | Pressure | Rain* | Wind** | Luminosity | Snow |
|---|---|---|---|---|---|---|---|
| 1777868223 | 23.33° C | 69% | 1014.3 hPa | 0 mm | - | - | - |
| 1777867623 | 23.33° C | 67% | 1014.4 hPa | 0 mm | - | - | - |
| 1777867023 | 22.78° C | 70% | 1014.8 hPa | 0 mm | - | - | - |
| 1777866424 | 22.78° C | 69% | 1014.5 hPa | 0 mm | - | - | - |
| 1777865823 | 22.22° C | 70% | 1014.7 hPa | 0 mm | - | - | - |
| 1777865224 | 22.22° C | 69% | 1014.9 hPa | 0 mm | - | - | - |
| 1777864624 | 22.22° C | 69% | 1015 hPa | 0 mm | - | - | - |
| 1777864023 | 22.22° C | 70% | 1015 hPa | 0 mm | - | - | - |
| 1777863423 | 22.22° C | 74% | 1015.1 hPa | 0 mm | - | - | - |
| 1777862823 | 21.11° C | 73% | 1015.5 hPa | 0 mm | - | - | - |
| 1777862224 | 21.11° C | 74% | 1015.4 hPa | 0 mm | - | - | - |
| 1777861624 | 20.56° C | 76% | 1015.2 hPa | 0 mm | - | - | - |
| 1777861024 | 20° C | 77% | 1015.5 hPa | 0 mm | - | - | - |
| 1777860424 | 20.56° C | 75% | 1015.7 hPa | 0 mm | - | - | - |
| 1777859823 | 20.56° C | 74% | 1015.8 hPa | 0.51 mm | - | - | - |
| 1777859223 | 20° C | 78% | 1015.9 hPa | 0.51 mm | - | - | - |
| 1777858624 | 20° C | 78% | 1015.9 hPa | 0.51 mm | - | - | - |
| 1777858024 | 20.56° C | 78% | 1015.6 hPa | 0.51 mm | - | - | - |
| 1777857423 | 20.56° C | 79% | 1015.6 hPa | 0.51 mm | - | - | - |
| 1777856824 | 20° C | 81% | 1015.3 hPa | 0.51 mm | - | - | - |
| 1777856224 | 20° C | 86% | 1015.2 hPa | 0 mm | - | - | - |
| 1777855624 | 20° C | 85% | 1015.4 hPa | 0.51 mm | - | - | - |
| 1777855024 | 20° C | 88% | 1015.4 hPa | 0.51 mm | - | - | - |
| 1777854423 | 19.44° C | 89% | 1015.6 hPa | 0.51 mm | - | - | - |
| 1777853823 | 19.44° C | 89% | 1015.6 hPa | 1.02 mm | - | - | - |
* Rain latest hour (hover to see other rain measurements)
** Current wind speed in m/s (hover to see current wind gust speed)